Wind_Speed
6 7 7 7 8 9 8 7 7 6 6 7 6 7 13 14 11 9 14 17 12 19 22 15 12 14 13 13 9 2 4 8 10 13 10 13 21 23 13 11 7 5 6 6 9
8 8 8 8 8 8 8 8 8 8 6 5 6 8 9 13 15 16 7 10 11 12 18 20 17 16 12 15 9 4 8 9 6 9 12 13 19 22 16 9 6 2 5 9 8
10 9 9 9 9 9 8 9 8 8 7 6 5 6 10 10 16 19 15 14 13 16 19 24 22 17 12 13 12 8 11 10 7 13 14 15 16 21 20 15 13 4 1 6 9
12 12 12 12 11 9 9 8 7 8 7 7 7 6 9 11 10 18 20 18 15 18 18 15 14 17 11 13 16 17 13 8 8 11 13 18 18 16 14 14 11 7 3 2 4
15 15 15 15 13 12 10 8 7 5 5 6 6 7 7 8 9 11 20 21 19 16 15 14 11 16 12 18 14 20 15 14 7 9 3 15 15 16 14 16 16 10 5 2 1
18 17 17 16 14 13 12 10 8 6 5 4 5 7 8 1 7 8 9 22 21 19 16 16 12 16 18 22 19 16 20 19 15 15 3 13 17 17 13 14 17 15 6 2 4
21 21 20 19 18 16 14 13 12 10 7 6 5 7 9 5 8 8 6 11 21 22 19 17 22 20 19 26 23 22 21 16 9 7 3 8 15 20 12 12 15 15 13 3 7
22 22 22 21 19 18 16 12 12 11 10 9 9 9 7 7 11 10 9 8 16 22 22 22 25 24 23 25 29 23 24 12 12 13 13 8 6 14 14 15 17 11 9 5 8
25 26 26 24 22 22 21 17 15 14 12 10 11 12 14 11 8 7 14 10 12 18 26 27 26 26 27 28 30 29 18 16 17 18 11 13 3 9 11 11 17 10 5 5 5
29 29 28 27 25 25 27 24 21 20 17 16 13 14 17 13 13 10 15 11 14 16 22 28 28 26 25 27 20 23 19 16 20 19 15 10 6 6 7 10 12 5 6 8 8
33 32 32 32 30 28 31 30 29 28 23 23 20 20 20 18 16 15 18 14 13 14 14 19 25 25 24 21 22 21 22 18 24 23 15 14 14 0 8 6 3 5 5 5 9
41 40 40 39 38 36 33 32 31 32 26 27 26 22 27 26 18 18 18 16 15 14 18 15 10 16 28 27 24 26 22 20 25 25 22 20 13 8 8 7 6 3 2 4 7
45 45 45 46 45 44 42 40 38 37 34 25 30 29 27 31 20 23 18 18 18 19 18 16 12 17 22 27 27 26 26 21 26 30 31 23 22 12 9 11 9 11 5 4 5
50 49 48 48 49 50 49 46 45 44 42 32 32 33 35 32 26 22 21 23 24 20 21 20 20 20 20 24 27 28 22 29 33 35 36 30 27 21 13 13 13 18 14 7 4
54 55 54 53 52 51 51 50 50 50 49 42 39 39 38 38 34 29 28 30 30 24 27 15 21 21 22 13 23 20 30 33 37 41 40 38 37 30 23 15 14 13 14 12 6
56 57 60 58 58 55 56 54 52 52 56 48 47 46 41 39 39 38 41 37 35 36 31 25 27 26 22 22 21 21 32 36 42 43 50 37 38 26 19 15 20 8 8 8 6
59 60 62 63 61 61 60 61 60 57 57 56 55 50 47 43 42 44 43 40 38 37 30 28 28 29 26 25 25 29 39 43 50 54 48 37 42 22 20 18 19 14 11 10 10
63 63 64 68 66 65 65 66 66 63 62 59 57 55 50 49 51 48 46 46 43 41 36 37 34 31 29 26 26 27 37 46 49 52 44 41 40 19 22 22 25 16 17 13 10
67 66 68 67 70 71 71 70 68 68 67 63 60 60 58 54 56 53 52 49 48 45 42 41 37 32 34 32 34 30 39 34 45 48 49 46 35 33 30 29 26 22 19 15 11
68 68 67 69 70 74 75 74 73 73 71 70 66 67 65 63 61 58 57 57 55 55 51 48 45 37 36 41 43 40 31 38 46 49 50 44 34 26 28 30 28 25 27 21 17
74 72 70 68 68 69 72 74 74 75 76 75 74 71 72 71 68 65 64 63 60 58 58 56 55 46 44 50 43 42 44 42 42 46 46 42 29 27 27 29 32 24 23 21 20
75 74 74 72 67 67 69 71 76 75 80 82 82 79 77 77 76 73 69 71 66 64 63 61 59 56 54 48 45 48 47 48 49 41 37 36 37 29 30 30 32 33 32 29 21
49 52 61 62 55 58 64 68 72 76 79 85 87 86 86 83 81 81 80 76 73 71 70 67 65 60 59 56 57 59 55 51 46 44 46 42 36 22 20 29 38 36 33 31 28
41 40 39 38 35 41 51 58 68 74 75 80 86 89 90 89 87 86 86 81 79 77 76 74 72 68 65 62 59 60 59 57 53 55 45 43 37 21 22 27 33 39 38 32 36
37 32 29 24 25 28 39 48 56 61 60 70 79 86 89 89 89 89 91 89 85 83 82 80 78 76 72 69 67 64 63 59 58 56 54 40 42 32 24 28 31 36 45 46 43
31 27 21 18 17 20 27 27 32 42 49 52 57 78 82 86 88 86 91 92 91 88 86 85 84 82 79 75 71 72 69 64 60 56 55 49 49 37 28 33 37 37 45 50 50
26 24 21 13 18 15 18 27 31 31 22 26 42 55 61 74 80 83 88 95 94 90 87 88 89 86 85 80 77 76 71 67 66 60 56 55 46 41 37 36 39 39 40 47 50
Wind_Direction
300 304 310 319 321 316 304 306 319 330 317 294 272 256 238 231 227 226 212 222 240 237 232 230 229 213 186 188 159 110 123 124 94 61 46 63 67 48 45 54 69 139 166 165 166
290 289 301 309 310 307 301 291 290 295 299 324 304 274 262 231 219 231 223 246 238 250 245 236 233 231 216 183 183 184 155 168 104 83 65 82 75 59 40 47 26 42 222 201 219
277 275 280 288 293 289 285 285 287 290 295 279 283 291 267 258 225 223 226 230 230 223 230 233 237 232 235 202 190 176 175 166 99 37 65 86 75 73 41 23 25 16 235 225 236
263 263 267 273 276 277 270 278 285 285 278 282 275 270 270 256 248 228 227 233 235 223 231 241 239 243 242 185 198 182 175 164 125 70 52 54 87 75 52 24 24 6 354 246 234
261 262 261 262 261 264 266 264 269 272 280 270 273 264 272 277 249 241 226 230 234 239 229 236 222 230 222 189 182 176 194 205 170 137 47 68 71 75 63 31 15 9 8 340 196
263 260 259 257 254 253 256 259 260 251 246 240 251 253 266 301 280 257 235 228 235 237 236 222 220 219 217 188 181 173 197 196 158 206 219 77 74 74 68 41 7 13 4 298 159
270 266 258 256 255 252 252 250 252 251 235 235 224 240 260 246 280 270 251 236 232 236 242 219 221 218 212 200 201 193 195 220 205 233 217 233 67 68 69 55 360 353 7 327 166
274 270 263 254 252 254 254 252 255 252 245 232 234 244 250 239 254 270 263 236 228 229 233 231 223 212 212 209 212 212 199 241 227 268 210 224 17 70 63 46 9 316 23 27 181
272 271 267 261 254 255 257 253 256 257 256 242 238 248 257 240 250 264 260 252 244 236 232 229 237 225 212 218 211 215 204 223 242 251 210 230 255 56 49 28 357 318 60 81 166
270 270 267 264 261 257 256 255 252 251 257 255 242 241 256 252 235 233 253 243 250 243 243 242 237 243 233 231 227 221 212 219 245 236 216 200 174 45 43 32 342 4 61 125 165
264 264 265 265 263 259 260 259 256 252 254 253 253 253 246 248 242 230 239 248 244 252 256 250 247 245 256 248 235 225 214 209 225 234 227 219 198 31 333 27 335 74 64 115 153
265 264 264 263 264 261 257 258 260 256 247 251 256 248 255 247 245 248 244 242 243 244 244 258 282 249 245 242 236 234 221 201 220 220 230 234 248 215 251 291 191 253 22 125 148
267 265 264 263 261 262 259 257 255 256 252 238 251 247 243 252 235 245 245 246 242 239 247 250 238 232 233 237 232 230 228 206 213 212 231 242 250 221 176 245 237 183 163 161 165
265 264 263 264 262 260 259 257 257 255 253 238 239 248 249 247 247 245 244 246 246 238 241 237 239 245 235 226 228 226 224 209 203 209 224 240 240 232 217 221 219 178 165 151 175
267 265 261 258 260 260 259 258 256 255 254 253 245 243 241 248 249 244 247 238 243 240 243 243 243 243 247 250 233 210 223 208 208 213 224 231 238 246 232 217 197 170 168 156 151
268 267 264 260 257 255 257 256 255 256 252 253 248 248 246 242 243 242 247 243 238 241 238 228 226 235 236 233 231 207 217 211 210 217 232 229 240 233 220 147 166 175 198 179 150
269 267 266 261 259 256 253 253 253 251 253 251 251 247 248 245 243 244 244 246 245 243 241 239 238 240 235 233 231 206 207 214 214 219 241 230 239 227 219 219 206 181 190 203 206
270 268 266 262 259 257 255 251 250 250 248 249 252 251 242 244 243 241 240 241 238 235 229 234 235 238 241 238 243 240 219 228 227 230 242 233 239 228 213 221 224 193 170 190 153
268 265 262 262 260 257 254 253 251 249 249 248 249 251 249 242 241 241 240 240 239 239 240 244 241 236 236 230 237 234 235 236 235 238 242 251 253 240 223 209 208 185 187 182 170
270 265 260 256 253 254 253 251 250 249 248 248 246 246 246 246 241 239 241 241 238 236 232 234 235 224 229 232 228 230 234 233 234 234 242 249 251 244 223 217 212 211 205 194 181
278 273 264 259 254 251 248 247 245 246 245 244 244 241 242 243 243 241 238 239 238 239 238 237 235 227 224 231 231 230 231 233 235 238 240 251 255 250 240 222 214 222 224 211 201
285 280 272 266 262 255 249 244 241 237 239 239 239 238 236 237 240 239 237 238 238 240 239 237 237 233 230 228 230 232 232 238 239 245 251 251 249 250 250 241 234 225 227 226 209
301 295 285 277 270 260 251 244 240 237 234 236 236 234 234 231 230 235 236 235 236 236 239 239 238 235 231 226 222 228 231 232 238 240 244 246 253 235 230 231 234 229 226 231 217
310 309 306 293 270 251 242 236 234 233 231 230 232 232 231 229 227 225 231 231 232 233 234 235 237 236 232 228 227 231 232 232 233 239 242 246 252 235 223 231 230 227 223 224 232
306 306 312 311 285 252 235 233 231 232 233 230 227 229 229 227 225 223 224 228 227 229 230 232 233 235 234 233 227 227 229 230 236 241 241 246 250 247 223 226 237 224 222 228 233
305 300 301 304 290 273 255 233 237 238 233 229 235 227 228 229 226 223 221 221 223 224 225 229 230 232 233 234 232 226 229 236 234 237 243 242 246 247 233 218 227 232 224 228 237
310 304 298 288 284 285 275 259 228 233 222 239 244 235 233 232 231 227 222 219 219 221 220 224 228 229 231 232 232 228 233 233 233 230 236 241 244 249 239 231 226 233 234 232 233
Height
5887 5886 5884 5883 5881 5879 5878 5877 5876 5874 5873 5871 5871 5870 5871 5871 5872 5873 5872 5870 5870 5872 5873 5876 5878 5880 5882 5884 5886 5885 5888 5887 5886 5889 5893 5891 5889 5888 5887 5888 5889 5890 5891 5893 5894
5885 5884 5883 5881 5880 5879 5877 5876 5874 5873 5872 5871 5869 5868 5867 5868 5870 5869 5871 5869 5870 5872 5874 5875 5876 5878 5881 5883 5884 5885 5885 5887 5886 5892 5893 5891 5889 5888 5890 5890 5890 5891 5891 5892 5893
5883 5881 5880 5879 5878 5876 5875 5874 5872 5871 5870 5869 5868 5867 5865 5865 5866 5867 5867 5866 5867 5870 5870 5871 5872 5876 5880 5882 5884 5886 5887 5886 5886 5889 5891 5892 5892 5890 5892 5891 5892 5891 5890 5892 5891
5879 5878 5877 5876 5874 5873 5872 5871 5870 5869 5868 5867 5866 5865 5863 5862 5864 5864 5864 5864 5864 5866 5867 5868 5872 5875 5878 5881 5882 5885 5889 5886 5886 5888 5892 5891 5893 5890 5892 5893 5892 5892 5890 5890 5891
5875 5874 5873 5872 5871 5869 5868 5868 5868 5867 5866 5865 5864 5863 5862 5861 5861 5860 5862 5862 5863 5863 5865 5867 5870 5873 5877 5878 5880 5881 5886 5887 5883 5884 5887 5890 5892 5892 5892 5893 5893 5892 5890 5889 5891
5871 5870 5869 5868 5867 5865 5864 5864 5863 5863 5863 5863 5863 5862 5861 5861 5859 5859 5859 5860 5861 5862 5862 5865 5868 5871 5874 5877 5878 5878 5881 5883 5881 5879 5884 5889 5890 5890 5892 5892 5893 5895 5892 5889 5890
5867 5866 5864 5864 5863 5861 5860 5860 5860 5860 5860 5859 5860 5860 5859 5859 5857 5857 5857 5858 5859 5860 5861 5863 5864 5867 5872 5875 5875 5877 5880 5883 5882 5881 5883 5886 5888 5887 5892 5891 5894 5895 5894 5889 5888
5862 5861 5859 5859 5859 5857 5856 5856 5856 5856 5856 5857 5856 5856 5855 5856 5855 5855 5855 5855 5855 5857 5859 5860 5860 5865 5867 5870 5874 5877 5881 5884 5883 5882 5884 5884 5886 5886 5889 5891 5894 5895 5893 5890 5889
5858 5856 5854 5854 5854 5853 5851 5852 5852 5852 5853 5854 5854 5852 5852 5853 5854 5853 5852 5853 5853 5853 5854 5854 5857 5861 5865 5866 5869 5873 5880 5882 5883 5882 5884 5885 5888 5886 5886 5890 5893 5893 5893 5891 5891
5851 5851 5849 5848 5848 5847 5845 5846 5847 5847 5849 5849 5850 5850 5849 5850 5849 5850 5848 5850 5851 5851 5850 5852 5853 5856 5860 5861 5865 5871 5876 5880 5881 5882 5881 5883 5886 5885 5885 5888 5893 5892 5892 5892 5892
5844 5843 5842 5840 5840 5840 5839 5839 5841 5842 5842 5843 5845 5845 5844 5844 5845 5846 5845 5846 5847 5848 5848 5847 5849 5852 5858 5861 5865 5868 5872 5875 5877 5878 5879 5880 5880 5882 5883 5888 5890 5889 5891 5892 5892
5836 5835 5833 5831 5831 5831 5831 5831 5831 5832 5836 5835 5837 5839 5836 5837 5840 5840 5842 5843 5843 5844 5844 5845 5847 5851 5854 5856 5860 5862 5866 5871 5875 5875 5875 5876 5876 5876 5880 5887 5888 5888 5887 5889 5892
5824 5824 5823 5822 5821 5821 5820 5821 5822 5822 5825 5831 5828 5830 5830 5829 5836 5835 5837 5838 5839 5838 5840 5843 5845 5844 5847 5851 5855 5858 5862 5868 5872 5870 5869 5872 5873 5874 5875 5884 5887 5886 5886 5887 5890
5810 5810 5810 5810 5811 5809 5810 5810 5810 5811 5812 5821 5821 5822 5822 5824 5828 5829 5831 5832 5832 5836 5835 5837 5840 5840 5842 5844 5849 5854 5861 5863 5866 5866 5865 5867 5868 5869 5873 5879 5884 5883 5884 5886 5889
5793 5793 5794 5795 5795 5796 5797 5799 5799 5800 5799 5807 5810 5810 5813 5815 5819 5823 5823 5823 5825 5829 5830 5836 5835 5837 5838 5844 5844 5855 5853 5859 5860 5859 5860 5859 5860 5865 5868 5872 5880 5883 5883 5884 5887
5776 5776 5774 5776 5778 5782 5781 5783 5786 5788 5784 5791 5793 5796 5803 5805 5806 5809 5811 5814 5818 5817 5821 5826 5827 5828 5835 5836 5839 5848 5849 5851 5854 5855 5846 5856 5855 5860 5861 5870 5877 5881 5884 5884 5886
5757 5757 5753 5755 5760 5762 5765 5765 5768 5770 5774 5776 5778 5786 5789 5793 5796 5797 5801 5804 5809 5812 5817 5819 5822 5824 5827 5830 5831 5835 5839 5839 5841 5839 5836 5852 5849 5855 5860 5864 5871 5874 5880 5883 5884
5736 5736 5732 5734 5739 5742 5742 5746 5748 5754 5755 5760 5764 5767 5775 5779 5782 5786 5789 5793 5797 5801 5807 5807 5812 5816 5822 5826 5828 5830 5831 5828 5827 5829 5835 5844 5838 5851 5860 5863 5866 5869 5875 5878 5882
5711 5710 5708 5715 5715 5718 5720 5723 5731 5733 5736 5743 5749 5751 5756 5764 5768 5771 5776 5782 5787 5792 5798 5799 5803 5810 5811 5817 5817 5824 5818 5832 5829 5830 5831 5831 5838 5844 5852 5857 5861 5863 5868 5875 5880
5682 5680 5682 5685 5688 5690 5694 5702 5706 5709 5715 5720 5728 5733 5737 5742 5751 5756 5760 5764 5771 5774 5781 5786 5790 5798 5802 5802 5804 5808 5820 5818 5815 5818 5819 5822 5828 5834 5845 5853 5858 5861 5863 5869 5874
5648 5648 5651 5655 5658 5663 5667 5673 5681 5683 5690 5696 5703 5711 5717 5723 5729 5738 5744 5747 5755 5760 5765 5771 5776 5788 5788 5786 5799 5804 5804 5807 5810 5811 5815 5817 5819 5831 5838 5847 5852 5857 5861 5864 5867
5612 5612 5615 5620 5625 5629 5635 5642 5647 5653 5656 5666 5675 5685 5693 5701 5707 5717 5728 5727 5739 5744 5748 5756 5762 5772 5774 5784 5791 5791 5795 5799 5798 5808 5810 5812 5811 5826 5833 5839 5846 5852 5854 5857 5860
5589 5584 5579 5582 5590 5594 5603 5610 5616 5624 5630 5635 5646 5656 5665 5676 5688 5692 5702 5710 5721 5728 5732 5741 5746 5757 5765 5770 5769 5771 5782 5789 5798 5801 5797 5805 5806 5823 5826 5830 5835 5841 5847 5850 5854
5576 5572 5566 5561 5562 5567 5570 5578 5586 5594 5601 5610 5618 5628 5638 5648 5658 5670 5679 5689 5699 5707 5715 5723 5730 5739 5749 5756 5761 5763 5770 5779 5787 5784 5793 5793 5804 5818 5823 5824 5827 5832 5839 5843 5846
5566 5563 5557 5553 5549 5550 5551 5555 5561 5568 5577 5585 5592 5599 5611 5625 5633 5642 5656 5666 5677 5687 5695 5703 5712 5719 5729 5737 5744 5750 5756 5766 5770 5778 5781 5797 5795 5807 5817 5819 5821 5826 5831 5834 5837
5557 5555 5553 5549 5545 5544 5541 5545 5549 5554 5558 5565 5572 5579 5588 5598 5609 5623 5633 5645 5656 5665 5675 5683 5693 5700 5711 5720 5730 5734 5743 5755 5760 5768 5773 5784 5785 5798 5809 5811 5813 5816 5821 5825 5830
5550 5548 5546 5546 5543 5541 5539 5539 5542 5547 5553 5555 5557 5566 5570 5578 5587 5599 5610 5623 5634 5645 5656 5665 5672 5681 5693 5702 5709 5720 5731 5744 5750 5754 5763 5769 5782 5790 5798 5802 5805 5809 5812 5816 5821